This is the latest recevied weather packets stored in our database for station/object F1AGU-13. If no packets are shown the sender has not sent any weather packets the latest 10 day(s).
| Time | Temp. | Humidity | Pressure | Rain* | Wind** | Luminosity | Snow |
|---|---|---|---|---|---|---|---|
| 1787755216 | 24.44° C | 64% | 1017.7 hPa | 0 mm | - | - | - |
| 1787754616 | 23.89° C | 67% | 1017.9 hPa | 0 mm | - | - | - |
| 1787754016 | 23.89° C | 65% | 1017.8 hPa | 0 mm | - | - | - |
| 1787753416 | 23.89° C | 66% | 1017.7 hPa | 0 mm | - | - | - |
| 1787752816 | 23.89° C | 64% | 1017.4 hPa | 0 mm | - | - | - |
| 1787752216 | 23.89° C | 64% | 1017.4 hPa | 0 mm | - | - | - |
| 1787751616 | 24.44° C | 61% | 1017.8 hPa | 0 mm | - | - | - |
| 1787751016 | 24.44° C | 60% | 1017.7 hPa | 0 mm | - | - | - |
| 1787750416 | 25° C | 61% | 1017.9 hPa | 0 mm | - | - | - |
| 1787749816 | 25° C | 58% | 1017.9 hPa | 0 mm | - | - | - |
| 1787749216 | 24.44° C | 64% | 1018 hPa | 0 mm | - | - | - |
| 1787748616 | 24.44° C | 62% | 1018.2 hPa | 0 mm | - | - | - |
| 1787748016 | 24.44° C | 65% | 1018.2 hPa | 0 mm | - | - | - |
| 1787747416 | 24.44° C | 62% | 1018.3 hPa | 0 mm | - | - | - |
| 1787746816 | 25° C | 58% | 1018.6 hPa | 0 mm | - | - | - |
| 1787746216 | 25° C | 54% | 1018.4 hPa | 0 mm | - | - | - |
| 1787745616 | 25° C | 52% | 1018.7 hPa | 0 mm | - | - | - |
| 1787745016 | 25° C | 54% | 1019 hPa | 0 mm | - | - | - |
| 1787744416 | 25° C | 55% | 1019.1 hPa | 0 mm | - | - | - |
| 1787743816 | 25° C | 56% | 1019.1 hPa | 0 mm | - | - | - |
| 1787743216 | 25° C | 62% | 1019.2 hPa | 0 mm | - | - | - |
| 1787742616 | 24.44° C | 60% | 1018.8 hPa | 0 mm | - | - | - |
| 1787742015 | 24.44° C | 61% | 1019.1 hPa | 0 mm | - | - | - |
| 1787741416 | 25° C | 62% | 1019.1 hPa | 0 mm | - | - | - |
| 1787740815 | 25° C | 56% | 1019.2 hPa | 0 mm | - | - | - |
* Rain latest hour (hover to see other rain measurements)
** Current wind speed in m/s (hover to see current wind gust speed)